1998-067WP

Last updated on Thu Aug 29 2024 00:02:08 GMT+0000 (Coordinated Universal Time)

1 59596U 98067WP 24241.57618113 .06920509 12240-4 13407-2 0 9990 2 59596 51.6134 298.1421 0007376 339.8543 20.2188 16.30900958 20791

Satellite not in orbit